FW4460 Weather Reports


time (UTC)temp
C
wind
direction
speed
KPH
gust
KPH
rain 1hr
cm
rain 24hr
cm
rain mn
cm
humidity
%
barometer
mb
20260504082004 8 131 0.0 0.0 0.00 0.00 0.00 82 1014.8
20260504081004 7 131 0.0 0.0 0.00 0.00 0.00 86 1014.7
20260504080504 7 131 0.0 0.0 0.00 0.00 0.00 86 1014.7
20260504050004 8 134 0.0 0.0 0.00 0.00 0.00 82 1015.9
20260504045503 8 167 0.0 0.0 0.00 0.00 0.00 82 1015.9
20260504044004 9 124 0.0 0.0 0.00 0.00 0.00 82 1016.0
20260504043504 9 124 0.0 0.0 0.00 0.00 0.00 81 1016.0
20260504043004 9 124 0.0 0.0 0.00 0.00 0.00 80 1016.1
20260504042504 9 124 0.0 0.0 0.00 0.00 0.00 80 1016.1
20260504041004 10 124 0.0 0.0 0.00 0.00 0.00 81 1016.0
20260504040504 10 124 0.0 0.0 0.00 0.00 0.00 79 1016.1
20260504040004 10 124 0.0 0.0 0.00 0.00 0.00 79 1016.0
20260504035004 10 124 0.0 0.0 0.00 0.00 0.00 78 1016.1
20260504034004 10 124 0.0 0.0 0.00 0.00 0.00 79 1016.2
20260504033504 10 125 0.0 0.0 0.00 0.00 0.00 79 1016.1
20260504033004 10 125 0.0 0.0 0.00 0.00 0.00 79 1016.1
20260504032504 10 125 0.0 0.0 0.00 0.00 0.00 78 1016.2
20260504031504 10 142 0.0 0.0 0.00 0.00 0.00 77 1016.2
20260504031004 11 136 0.0 0.0 0.00 0.00 0.00 77 1016.2
20260504025004 11 148 0.0 0.0 0.00 0.00 0.00 76 1016.2
20260504024504 11 135 0.0 0.0 0.00 0.00 0.00 76 1016.2
20260504024004 11 135 0.0 0.0 0.00 0.00 0.00 77 1016.3
20260504023504 11 126 0.0 1.6 0.00 0.00 0.00 76 1016.3
20260504023004 11 139 0.0 0.0 0.00 0.00 0.00 76 1016.3
20260504022504 11 139 0.0 0.0 0.00 0.00 0.00 76 1016.2
20260504022004 11 138 0.0 0.0 0.00 0.00 0.00 77 1016.2
20260504021504 11 144 0.0 0.0 0.00 0.00 0.00 76 1016.1
20260504021004 11 145 0.0 1.6 0.00 0.00 0.00 75 1016.1
20260504020504 11 124 0.0 1.6 0.00 0.00 0.00 72 1016.0
20260504020004 11 123 0.0 0.0 0.00 0.00 0.00 72 1016.0
20260504015004 12 123 0.0 0.0 0.00 0.00 0.00 72 1015.9
20260504014503 12 123 0.0 0.0 0.00 0.00 0.00 72 1015.8
20260504014004 12 123 0.0 0.0 0.00 0.00 0.00 72 1015.8
20260504013504 12 146 0.0 0.0 0.00 0.00 0.00 70 1015.8
20260504013004 12 146 0.0 0.0 0.00 0.00 0.00 68 1015.8
20260504012504 12 146 0.0 0.0 0.00 0.00 0.00 67 1015.8
20260504012004 13 146 0.0 0.0 0.00 0.00 0.00 65 1015.8
20260504011504 13 146 0.0 0.0 0.00 0.00 0.00 64 1015.8
20260504011004 13 146 0.0 0.0 0.00 0.00 0.00 63 1015.8
20260504010504 13 146 0.0 0.0 0.00 0.00 0.00 62 1015.7
20260504010004 13 146 0.0 0.0 0.00 0.00 0.00 62 1015.7
20260504005004 14 146 0.0 0.0 0.00 0.00 0.00 60 1015.6
20260504004004 15 146 0.0 1.6 0.00 0.00 0.00 57 1015.5
20260504003004 16 149 0.0 0.0 0.00 0.00 0.00 52 1015.5
20260504002504 17 149 0.0 1.6 0.00 0.00 0.00 50 1015.5
20260504002004 18 118 0.0 1.6 0.00 0.00 0.00 48 1015.5
20260504001504 18 218 0.0 0.0 0.00 0.00 0.00 46 1015.5
20260504001004 19 218 0.0 0.0 0.00 0.00 0.00 45 1015.5
20260504000504 19 215 0.0 0.0 0.00 0.00 0.00 45 1015.5
20260504000004 20 214 0.0 1.6 0.00 0.00 0.00 44 1015.5
20260503235004 20 245 0.0 0.0 0.00 0.00 0.00 44 1015.6
20260503234504 19 278 0.0 0.0 0.00 0.00 0.00 45 1015.7
20260503234004 19 278 0.0 4.8 0.00 0.00 0.00 45 1015.7
20260503233003 19 238 0.0 4.8 0.00 0.00 0.00 43 1015.9
20260503232504 19 260 1.6 4.8 0.00 0.00 0.00 42 1015.9
20260503232004 19 286 3.2 4.8 0.00 0.00 0.00 42 1016.0
20260503231504 19 275 1.6 4.8 0.00 0.00 0.00 43 1016.0
20260503231004 19 233 1.6 11.3 0.00 0.00 0.00 44 1016.1
20260503230504 19 269 4.8 14.5 0.00 0.00 0.00 42 1016.1
20260503230004 19 270 3.2 11.3 0.00 0.00 0.00 42 1016.1
20260503225504 19 264 1.6 11.3 0.00 0.00 0.00 41 1016.2
20260503225004 19 266 1.6 12.9 0.00 0.00 0.00 45 1016.2
20260503224003 20 310 0.0 4.8 0.00 0.00 0.00 43 1016.3
20260503223004 19 254 1.6 4.8 0.00 0.00 0.00 43 1016.3
20260503222504 19 245 3.2 11.3 0.00 0.00 0.00 40 1016.3
20260503221504 20 238 4.8 9.7 0.00 0.00 0.00 43 1016.3
20260503221004 20 302 3.2 12.9 0.00 0.00 0.00 42 1016.3
20260503220504 20 294 4.8 11.3 0.00 0.00 0.00 38 1016.3
20260503220004 20 289 1.6 4.8 0.00 0.00 0.00 40 1016.3
20260503215504 20 308 3.2 9.7 0.00 0.00 0.00 39 1016.4
20260503215004 20 287 3.2 8.0 0.00 0.00 0.00 42 1016.4
20260503214504 20 243 4.8 12.9 0.00 0.00 0.00 39 1016.4
20260503214004 20 254 1.6 3.2 0.00 0.00 0.00 46 1016.5
20260503213504 19 30 1.6 8.0 0.00 0.00 0.00 42 1016.6
20260503213004 19 288 8.0 11.3 0.00 0.00 0.00 39 1016.6
20260503212504 19 262 1.6 8.0 0.00 0.00 0.00 44 1016.6
20260503212004 19 16 4.8 8.0 0.00 0.00 0.00 39 1016.7
20260503211504 19 310 6.4 12.9 0.00 0.00 0.00 40 1016.8
20260503211003 20 273 4.8 11.3 0.00 0.00 0.00 42 1016.7
20260503210504 19 270 3.2 4.8 0.00 0.00 0.00 42 1016.8
20260503210004 19 111 3.2 11.3 0.00 0.00 0.00 44 1017.0
20260503205504 19 248 3.2 4.8 0.00 0.00 0.00 43 1017.0
20260503205004 18 139 1.6 12.9 0.00 0.00 0.00 43 1017.0
20260503204504 19 232 4.8 12.9 0.00 0.00 0.00 42 1017.1
20260503203004 19 229 3.2 9.7 0.00 0.00 0.00 45 1017.4
20260503202504 19 211 3.2 9.7 0.00 0.00 0.00 44 1017.5
20260503202004 18 195 1.6 8.0 0.00 0.00 0.00 44 1017.6
20260503201503 18 281 4.8 12.9 0.00 0.00 0.00 44 1017.6
20260503201004 18 309 1.6 12.9 0.00 0.00 0.00 42 1017.7
20260503200503 18 94 0.0 8.0 0.00 0.00 0.00 45 1017.9
20260503195504 18 285 9.7 19.3 0.00 0.00 0.00 41 1018.2
20260503195005 18 288 4.8 11.3 0.00 0.00 0.00 44 1018.3
20260503194504 18 292 6.4 16.1 0.00 0.00 0.00 42 1018.4
20260503194004 18 263 3.2 9.7 0.00 0.00 0.00 43 1018.5
20260503193504 18 278 4.8 14.5 0.00 0.00 0.00 46 1018.5
20260503193004 18 266 4.8 11.3 0.00 0.00 0.00 48 1018.6
20260503192504 18 7 0.0 11.3 0.00 0.00 0.00 50 1018.6
20260503191504 17 350 0.0 8.0 0.00 0.00 0.00 45 1018.8
20260503191004 17 272 9.7 19.3 0.00 0.00 0.00 43 1018.9
20260503190504 17 263 8.0 14.5 0.00 0.00 0.00 46 1018.9
20260503190004 17 276 3.2 9.7 0.00 0.00 0.00 44 1018.9
20260503185503 17 279 8.0 14.5 0.00 0.00 0.00 45 1019.0
20260503185004 17 286 9.7 19.3 0.00 0.00 0.00 43 1019.0
20260503184504 17 298 3.2 9.7 0.00 0.00 0.00 48 1019.1
20260503184004 17 285 1.6 9.7 0.00 0.00 0.00 46 1019.1
20260503183504 17 335 6.4 14.5 0.00 0.00 0.00 46 1019.2
20260503182504 17 306 4.8 12.9 0.00 0.00 0.00 44 1019.3
20260503181505 17 283 4.8 9.7 0.00 0.00 0.00 44 1019.4
20260503181005 17 263 1.6 4.8 0.00 0.00 0.00 51 1019.5
20260503180504 17 309 3.2 11.3 0.00 0.00 0.00 47 1019.4
20260503180004 17 278 1.6 11.3 0.00 0.00 0.00 47 1019.5
20260503175504 17 294 4.8 8.0 0.00 0.00 0.00 44 1019.6
20260503174504 17 210 1.6 4.8 0.00 0.00 0.00 47 1019.8
20260503174004 17 161 3.2 11.3 0.00 0.00 0.00 48 1019.8
20260503173004 16 296 4.8 14.5 0.00 0.00 0.00 47 1020.0
20260503172504 16 268 3.2 8.0 0.00 0.00 0.00 45 1020.1
20260503171004 15 342 1.6 4.8 0.00 0.00 0.00 46 1020.3
20260503170504 15 295 4.8 14.5 0.00 0.00 0.00 46 1020.3
20260503151004 13 320 3.2 4.8 0.00 0.00 0.00 64 1021.0
20260503150504 13 304 1.6 4.8 0.00 0.00 0.00 63 1021.0
20260503131004 8 300 0.0 0.0 0.00 0.00 0.00 90 1020.8
20260503110504 4 163 0.0 0.0 0.00 0.00 0.00 95 1019.7
20260503090504 5 167 0.0 1.6 0.00 0.00 0.00 93 1019.1